Regional Weather Roundup
Issued by NWS Charleston, WV

Home | Current Version | Previous Version | Text Only | Print | Product List | Glossary Off
Versions: 1 2 3 4 5 6 7 8 9 10 11 12 13 14 15 16 17 18 19 20 21 22 23 24 25 26 27 28 29 30 31 32 33 34 35 36 37 38 39 40 41 42 43 44 45 46 47 48 49 50

000
ASUS41 KRLX 260310
RWRRLX
West Virginia Regional Weather Roundup
National Weather Service Charleston WV
1000 PM EST TUE NOV 25 2014

Note: "fair" indicates few or no clouds below 12,000 feet with no
significant weather and/or obstructions to visibility.

WVZ003-260400-
Northern Panhandle of West Virginia

CITY           SKY/WX    TMP DP  RH WIND       PRES   REMARKS
WHEELING       PTCLDY    33  24  69 E3        30.17R
$$

WVZ009-260400-
Northwest West Virginia

CITY           SKY/WX    TMP DP  RH WIND       PRES   REMARKS
PARKERSBURG    MOCLDY    37  26  64 NE3       30.20R
$$

WVZ006-260400-
Western West Virginia

CITY           SKY/WX    TMP DP  RH WIND       PRES   REMARKS
HUNTINGTON     MOCLDY    40  29  64 N7        30.14R
$$

WVZ015-260400-
West Central West Virginia

CITY           SKY/WX    TMP DP  RH WIND       PRES   REMARKS
CHARLESTON     CLOUDY    43  27  53 N3        30.14R
$$

WVZ022-031-260400-
North Central West Virginia

CITY           SKY/WX    TMP DP  RH WIND       PRES   REMARKS
CLARKSBURG     MOCLDY    37  29  72 N8        30.15R
MORGANTOWN     PTCLDY    37  24  59 N6        30.17R
$$

WVZ025-035-042-045-260400-
Southern West Virginia

CITY           SKY/WX    TMP DP  RH WIND       PRES   REMARKS
BECKLEY        CLOUDY    39  26  59 CALM      30.10R
LOGAN            N/A     45  27  49 CALM      30.11S
BLUEFIELD      CLOUDY    44  21  40 CALM      30.09R
LEWISBURG      CLOUDY    38  27  64 CALM      30.10R
$$

WVZ047-260400-
Northern Mountains of West Virginia

CITY           SKY/WX    TMP DP  RH WIND       PRES   REMARKS
ELKINS         CLOUDY    32  28  85 CALM      30.13R
$$

WVZ052-260400-
Eastern Panhandle of West Virginia

CITY           SKY/WX    TMP DP  RH WIND       PRES   REMARKS
MARTINSBURG    CLOUDY    38  27  64 CALM      30.13R
PETERSBURG     CLOUDY    36  28  71 W5        30.14S
$$



USA.gov is the U.S. government's official web portal to all federal, state and local government web resources and services.